Homer, AK

6:10 PM AKDT on August 21, 2017 (GMT -0800)
Homer

Weather History for PAHO - December, 2012

Change the Weather History Date:

Sunday, December 9, 2012

  Actual Average Record
Temperature  
Mean Temperature 34 °F -  
Max Temperature 39 °F 29 °F 49 °F (1986)
Min Temperature 28 °F 17 °F -7 °F (1975)
Degree Days  
Heating Degree Days 32    
Moisture  
Dew Point 30 °F    
Average Humidity 85    
Maximum Humidity 89    
Minimum Humidity 77    
Precipitation  
Precipitation 0.14 in - - ()
Sea Level Pressure  
Sea Level Pressure 29.37 in    
Wind  
Wind Speed 4 mph (NNW)    
Max Wind Speed 9 mph    
Max Gust Speed -    
Visibility 10 miles    
Events Rain    
Averages and records for this station are not official NWS values.
T = Trace of Precipitation, MM = Missing Value Source: NWS Daily Summary

Daily Weather History Graph

Daily Weather History Graph

Search for Another Location

Airport or City:

Trip Planner

Search our weather history database for the weather conditions in past years. The results will help you decide how hot, cold, wet, or windy it might be!

Date:

Astronomy

Dec. 09, 2012 Rise Set
Actual Time 9:53 AM AKST 4:03 PM AKST
Civil Twilight 8:57 AM AKST 4:59 PM AKST
Nautical Twilight 8:02 AM AKST 5:54 PM AKST
Astronomical Twilight 7:11 AM AKST 6:45 PM AKST
Moon 4:49 AM AKST (12/9) 2:00 PM AKST (12/9)
Length of Visible Light 8h 01m
Length of Day
6h 10m
Waning Crescent, 17% of the Moon is Illuminated
Dec 9
Waning Crescent
Dec 12
New
Dec 19
First Quarter
Dec 28
Full
Jan 4
Last Quarter

Hourly Weather History & Observations

Time (AKST) Temp. Windchill Dew Point Humidity Pressure Visibility Wind Dir Wind Speed Gust Speed Precip Events Conditions
12:53 AM 32.0 °F 27.5 °F 27.0 °F 82% 29.23 in 10.0 mi NE 4.6 mph - N/A   Partly Cloudy
1:53 AM 32.0 °F 24.2 °F 28.0 °F 85% 29.24 in 10.0 mi ENE 9.2 mph - N/A   Overcast
3:53 AM 30.0 °F 26.5 °F 27.0 °F 88% 29.25 in 10.0 mi NNE 3.5 mph - N/A   Mostly Cloudy
4:53 AM 28.9 °F 21.1 °F 25.0 °F 85% 29.24 in 10.0 mi NE 8.1 mph - N/A   Clear
5:53 AM 28.9 °F - 26.1 °F 89% 29.25 in 10.0 mi Calm Calm - N/A   Scattered Clouds
6:53 AM 30.0 °F 24.1 °F 26.1 °F 85% 29.26 in 10.0 mi NNE 5.8 mph - N/A   Mostly Cloudy
7:53 AM 32.0 °F - 28.0 °F 85% 29.28 in 10.0 mi Calm Calm - N/A   Overcast
8:53 AM 30.9 °F - 28.0 °F 89% 29.29 in 10.0 mi Calm Calm - N/A   Mostly Cloudy
9:53 AM 32.0 °F - 28.9 °F 88% 29.31 in 10.0 mi Calm Calm - N/A   Overcast
10:53 AM 32.0 °F 28.7 °F 28.9 °F 88% 29.33 in 10.0 mi East 3.5 mph - N/A   Overcast
11:53 AM 35.1 °F 32.2 °F 30.0 °F 82% 29.35 in 10.0 mi NE 3.5 mph - N/A   Overcast
12:53 PM 34.0 °F - 30.0 °F 85% 29.36 in 10.0 mi Calm Calm - N/A   Overcast
1:53 PM 35.1 °F - 30.0 °F 82% 29.39 in 10.0 mi Calm Calm - 0.00 in   Overcast
2:53 PM 36.0 °F - 32.0 °F 86% 29.39 in 10.0 mi Calm Calm - 0.01 in Rain Light Rain
3:53 PM 39.9 °F - 33.1 °F 77% 29.41 in 10.0 mi Calm Calm - 0.02 in   Overcast
4:24 PM 39.2 °F 35.9 °F 33.8 °F 81% 29.42 in 10.0 mi SSW 4.6 mph - 0.00 in Rain Light Rain
4:53 PM 39.0 °F 34.0 °F 33.1 °F 79% 29.43 in 10.0 mi SW 6.9 mph - 0.01 in Rain Light Rain
5:53 PM 37.9 °F 32.1 °F 33.1 °F 83% 29.44 in 10.0 mi SW 8.1 mph - 0.02 in Rain Light Rain
6:53 PM 37.9 °F 34.4 °F 34.0 °F 86% 29.47 in 6.0 mi WSW 4.6 mph - 0.04 in Rain Light Rain
7:53 PM 37.9 °F - 33.1 °F 83% 29.49 in 10.0 mi Calm Calm - 0.04 in Rain Light Rain
8:53 PM 37.0 °F 34.5 °F 33.1 °F 86% 29.50 in 10.0 mi Variable 3.5 mph - 0.00 in   Overcast
9:53 PM 37.0 °F 33.3 °F 34.0 °F 89% 29.52 in 10.0 mi West 4.6 mph - 0.00 in   Overcast
10:53 PM 37.0 °F 31.6 °F 34.0 °F 89% 29.54 in 10.0 mi West 6.9 mph - 0.00 in   Overcast
11:53 PM 37.0 °F 34.5 °F 33.1 °F 86% 29.55 in 10.0 mi West 3.5 mph - N/A   Overcast